Location: Cluj-Napoca
(46.7712°N, 23.6236°E)
Time: 17:10:11
(UTC+03:00)

ISS - Pass Details

Date: 29 May 2020
Orbit: 417 x 420 km, 51.6° (Epoch: 25 May)

Event Time Altitude Azimuth Distance (km) Brightness Sun altitude
Rises 00:11:53 0° 288° (WNW) 2,367 0.6 -19.7°
Reaches altitude 10° 00:14:22 10° 270° (W) 1,499 -0.8 -19.9°
Enters shadow 00:15:35 16° 252° (WSW) 1,189 -1.5 -19.9°
